Meteo Giornale » Osservazioni meteo Italia » Perugia

ore: 23:20 - Osservazioni Meteo Perugia
Lat. 43° 5' N Lon. 12° 30' E Alt. 208 metri s.l.m.

sereno

21 °C

Sereno

Temp. 24 Ore

18 °C

34 °C

Nord/Nord-Est

9.3 Km/h

Dew point 11 °C

Umidità 52 %

Visibilità  10 Km

Il sole sorge alle ore 06:34

Il sole tramonta alle ore 19:45

Data e Ora Cielo e Fenomeni T °C DP °C Um. % Pres. hPa Vis. km Vento km/h
Oggi h: 23:20 sereno Sereno 21 11 52 1019 10 N/NE 9.3
Oggi h: 22:50 sereno Sereno 22 12 53 1019 10 NE 7.4
Oggi h: 22:20 sereno Sereno 23 11 46 1018 10 N 1.8
Oggi h: 21:50 sereno Sereno 25 11 41 1018 10 N 3.7
Oggi h: 21:20 sereno Sereno 25 10 38 1018 10 N 5.5
Oggi h: 20:50 sereno Sereno 29 9 28 1018 10 O 9.3
Oggi h: 20:20 sereno Sereno 29 10 30 1017 10 O/NO 9.3
Oggi h: 19:50 sereno Sereno 30 11 30 1017 10 O 11.1
Oggi h: 19:20 sereno Sereno 32 11 27 1016 10 O/NO 11.1
Oggi h: 18:50 sereno Sereno 33 12 27 1017 10 O 13
Oggi h: 18:20 sereno Sereno 33 12 27 1017 10 O/NO 14.8
Oggi h: 17:50 sereno Sereno 34 13 28 1017 10 O/NO 14.8
Oggi h: 17:20 sereno Sereno 34 10 23 1016 10 O 16.7
Oggi h: 16:50 sereno Sereno 34 12 26 1017 10 O 13
Oggi h: 16:20 sereno Sereno 34 11 24 1017 10 O 14.8
Oggi h: 15:50 sereno Sereno 34 11 24 1017 10 O 14.8
Oggi h: 15:20 sereno Sereno 33 13 29 1017 10 O 16.7
Oggi h: 14:50 sereno Sereno 34 10 23 1017 10 O/SO 22.2
Oggi h: 14:20 sereno Sereno 33 12 27 1017 10 O/SO 16.7
Oggi h: 13:50 sereno Sereno 33 15 33 1017 10 N 9.3
Oggi h: 13:20 sereno Sereno 32 16 38 1018 10 O 9.3
Oggi h: 12:50 sereno Sereno 31 16 40 1018 10 N 5.5
Oggi h: 12:20 sereno Sereno 31 16 40 1018 10 N 5.5
Oggi h: 11:50 sereno Sereno 29 17 48 1018 10 N 3.7
Oggi h: 11:20 sereno Sereno 29 17 48 1018 10 N 5.5
Oggi h: 10:50 sereno Sereno 28 17 51 1018 10 N 5.5
Oggi h: 10:20 sereno Sereno 26 16 54 1018 10 N 3.7
Oggi h: 09:50 sereno Sereno 26 16 54 1018 10 N 3.7
Oggi h: 09:20 sereno Sereno 24 16 60 1018 10 N/NE 7.4
Oggi h: 08:50 sereno Sereno 23 17 68 1018 10 N/NE 7.4
Oggi h: 08:20 sereno Sereno 22 17 73 1018 10 N 9.3
Oggi h: 07:50 sereno Sereno 20 16 77 1018 10 N 5.5
Oggi h: 07:20 sereno Sereno 19 16 82 1018 10 N 3.7
Oggi h: 06:50 sereno Sereno 18 16 88 1018 10 N 5.5
Oggi h: 06:20 sereno Sereno 18 16 88 1018 10 N 3.7
Oggi h: 05:50 sereno Sereno 18 16 88 1018 10 N 5.5
Oggi h: 05:20 sereno Sereno 19 17 88 1018 10 N/NE 11.1
Oggi h: 04:50 sereno Sereno 18 16 88 1018 10 N 7.4
Oggi h: 04:20 sereno Sereno 19 16 82 1018 10 N/NE 7.4
Oggi h: 03:50 sereno Sereno 19 16 82 1018 10 N 1.8
Oggi h: 03:20 sereno Sereno 19 16 82 1018 10 NE 7.4
Oggi h: 02:50 sereno Sereno 20 16 77 1018 10 N 3.7
Oggi h: 02:20 sereno Sereno 20 16 77 1018 10 NE 7.4
Oggi h: 01:50 sereno Sereno 20 16 77 1018 10 NE 9.3
Oggi h: 01:20 sereno Sereno 21 16 73 1018 10 N/NE 7.4
Oggi h: 00:50 sereno Sereno 21 16 73 1018 10 NE 7.4
Oggi h: 00:20 sereno Sereno 23 16 64 1017 10 N 7.4
Ieri h: 23:50 sereno Sereno 24 17 64 1017 10 S/SO 7.4